Find Starlink 34735

NORAD ID: 65072 Int'l Des: 2025-165 Owner: SPXS Country: US Constellation: starlink operational
LEOCIRCULARRETROGRADESSO

リアルタイム位置

3D地球を読み込み中...

Starlink 34735について

説明を読み込み中...

次回通過

Passes for default location (London). Set your location on the main map for personalized predictions.

高度履歴

Loading altitude history...

軌道要素

1 65072U 25165S 26104.45572248 .00001845 00000-0 13207-3 0 9993
2 65072 97.6031 182.5084 0000664 179.9366 180.1861 15.05651373 40176
Epoch: Apr 14, 2026 • Age: 19 hours

現在のステータス

高度 552.6 km
速度 7.59 km/s
衛星直下点 20.82°N, 115.56°W
打ち上げ日 Jul 31, 2025
運用期間 0.7 years
タイプ internet

技術仕様

分類 Payload
質量 575.00 kg
乾燥質量 530.00 kg
総質量 575.00 kg
長さ 0.30 m
直径 4.10 m
スパン 29.00 m
形状 Box + pan
製造者 SPXS
バスタイプ Starlink V2MO
フェーズステータス In Orbit
所有者/国 SPXS/US

Most Searched